Location: Hamburg
(53.5554°N, 9.9941°E)
Time: 08:45:32
(UTC+01:00)

ISS - Pass Details

Date: 15 November 2017
Orbit: 402 x 407 km, 51.6° (Epoch: 21 November)

Event Time Altitude Azimuth Distance (km) Brightness Sun altitude
Exits shadow 06:28:16 - 239° (WSW) 1,494 -1.4 -11.4°
Reaches altitude 10° 06:28:39 10° 232° (SW) 1,454 -1.4 -11.3°
Maximum altitude 06:29:18 10° 221° (SW) 1,426 -1.3 -11.3°
Drops below altitude 10° 06:29:57 10° 209° (SSW) 1,452 -1.1 -11.2°
Sets 06:33:33 0° 167° (SSE) 2,305 0.4 -10.7°
